Volver al catálogo

ISAT

ActivoRadioaficionadoPO
NORAD 43879·PAYLOAD·🇩🇪 Germany

Lanzado Dec 27, 2018 desde Vostochny Cosmodrome

Loading…

Próximos Pases (próximas 24 horas)

TLE

ActualizadoSource: Space-Track

Época: Sep 13, 2026, 18:47 UTC

1 43879U 18111D   26256.78317077  .00446750  82188-4  11594-2 0  9993
2 43879  97.5792 200.3334 0007766 127.9061 232.2917 15.94996121425126

Sigue ISAT en tiempo real con AllMySat

Download on the App Store